Time,TemperatureF,DewpointF,PressureIn,WindDirection,WindDirectionDegrees,WindSpeedMPH,WindSpeedGustMPH,Humidity,HourlyPrecipIn,Conditions,Clouds,dailyrainin,SolarRadiationWatts/m^2,SoftwareType,DateUTC
2013-03-01 00:00:00,23.2,16.2,30.24,NNE,22,2.0,5.0,74,0.00,,---,0.00,0.00,VWS V14.01,2013-03-01 06:00:00,
2013-03-01 00:05:00,23.2,16.2,30.25,ENE,68,2.0,5.0,74,0.00,,---,0.00,0.00,VWS V14.01,2013-03-01 06:05:00,
2013-03-01 00:10:00,23.2,16.2,30.24,NE,45,1.0,4.0,74,0.00,,---,0.00,0.00,VWS V14.01,2013-03-01 06:10:00,
2013-03-01 00:15:00,23.2,16.2,30.24,ENE,68,3.0,7.0,74,0.00,,---,0.00,0.00,VWS V14.01,2013-03-01 06:15:00,
2013-03-01 00:20:00,23.3,16.6,30.24,NE,45,2.0,4.0,75,0.00,,---,0.00,0.00,VWS V14.01,2013-03-01 06:20:00,
2013-03-01 00:25:00,23.2,16.5,30.24,NE,45,2.0,5.0,75,0.00,,---,0.00,0.00,VWS V14.01,2013-03-01 06:25:00,
2013-03-01 00:30:00,23.2,16.5,30.25,NE,45,2.0,7.0,75,0.00,,---,0.00,0.00,VWS V14.01,2013-03-01 06:30:00,
2013-03-01 00:35:00,23.2,16.5,30.25,NE,45,3.0,8.0,75,0.00,,---,0.00,0.00,VWS V14.01,2013-03-01 06:35:00,
2013-03-01 00:40:00,23.3,16.6,30.25,East,90,2.0,9.0,75,0.00,,---,0.00,0.00,VWS V14.01,2013-03-01 06:40:00,
2013-03-01 00:45:00,23.3,16.2,30.25,NE,45,4.0,16.0,74,0.00,,---,0.00,0.00,VWS V14.01,2013-03-01 06:45:00,
2013-03-01 00:50:00,23.3,16.2,30.25,NE,45,3.0,9.0,74,0.00,,---,0.00,0.00,VWS V14.01,2013-03-01 06:50:00,
2013-03-01 00:55:00,23.3,16.2,30.25,NE,45,3.0,7.0,74,0.00,,---,0.00,0.00,VWS V14.01,2013-03-01 06:55:00,
2013-03-01 01:00:00,23.3,16.2,30.25,ENE,68,4.0,7.0,74,0.00,,---,0.00,0.00,VWS V14.01,2013-03-01 07:00:00,
2013-03-01 01:05:00,23.3,16.2,30.25,East,90,3.0,10.0,74,0.00,,---,0.00,0.00,VWS V14.01,2013-03-01 07:05:00,
2013-03-01 01:10:00,23.3,16.2,30.25,East,90,4.0,12.0,74,0.00,,---,0.00,0.00,VWS V14.01,2013-03-01 07:10:00,
2013-03-01 01:15:00,23.2,15.8,30.26,East,90,5.0,13.0,73,0.00,,---,0.00,0.00,VWS V14.01,2013-03-01 07:15:00,
2013-03-01 01:20:00,23.2,15.5,30.26,East,90,4.0,11.0,72,0.00,,---,0.00,0.00,VWS V14.01,2013-03-01 07:20:00,
2013-03-01 01:25:00,23.2,15.5,30.26,NE,45,3.0,11.0,72,0.00,,---,0.00,0.00,VWS V14.01,2013-03-01 07:25:00,
2013-03-01 01:30:00,23.1,15.8,30.26,East,90,3.0,8.0,73,0.00,,---,0.00,0.00,VWS V14.01,2013-03-01 07:30:00,
2013-03-01 01:35:00,23.1,15.8,30.26,NNE,22,2.0,12.0,73,0.00,,---,0.00,0.00,VWS V14.01,2013-03-01 07:35:00,
2013-03-01 01:40:00,23.1,15.8,30.26,NE,45,4.0,9.0,73,0.00,,---,0.00,0.00,VWS V14.01,2013-03-01 07:40:00,
2013-03-01 01:45:00,23.0,15.6,30.26,East,90,4.0,10.0,73,0.00,,---,0.00,0.00,VWS V14.01,2013-03-01 07:45:00,
2013-03-01 01:50:00,23.0,15.6,30.26,ESE,112,3.0,10.0,73,0.00,,---,0.00,0.00,VWS V14.01,2013-03-01 07:50:00,
2013-03-01 01:55:00,22.9,15.6,30.26,ENE,68,4.0,12.0,73,0.00,,---,0.00,0.00,VWS V14.01,2013-03-01 07:55:00,
2013-03-01 02:00:00,22.9,15.6,30.26,NE,45,4.0,11.0,73,0.00,,---,0.00,0.00,VWS V14.01,2013-03-01 08:00:00,
2013-03-01 02:05:00,22.9,15.2,30.26,East,90,4.0,10.0,72,0.00,,---,0.00,0.00,VWS V14.01,2013-03-01 08:05:00,
2013-03-01 02:10:00,22.8,15.1,30.26,East,90,5.0,11.0,72,0.00,,---,0.00,0.00,VWS V14.01,2013-03-01 08:10:00,
2013-03-01 02:15:00,22.8,15.1,30.26,ENE,68,3.0,10.0,72,0.00,,---,0.00,0.00,VWS V14.01,2013-03-01 08:15:00,
2013-03-01 02:20:00,22.8,15.1,30.26,ENE,68,2.0,9.0,72,0.00,,---,0.00,0.00,VWS V14.01,2013-03-01 08:20:00,
2013-03-01 02:25:00,22.8,15.5,30.27,ENE,68,3.0,6.0,73,0.00,,---,0.00,0.00,VWS V14.01,2013-03-01 08:25:00,
2013-03-01 02:30:00,22.8,15.1,30.27,East,90,3.0,9.0,72,0.00,,---,0.00,0.00,VWS V14.01,2013-03-01 08:30:00,
2013-03-01 02:35:00,22.8,15.5,30.27,ENE,68,2.0,7.0,73,0.00,,---,0.00,0.00,VWS V14.01,2013-03-01 08:35:00,
2013-03-01 02:40:00,22.7,15.1,30.27,ENE,68,5.0,11.0,72,0.00,,---,0.00,0.00,VWS V14.01,2013-03-01 08:40:00,
2013-03-01 02:45:00,22.8,15.5,30.27,ENE,68,2.0,5.0,73,0.00,,---,0.00,0.00,VWS V14.01,2013-03-01 08:45:00,
2013-03-01 02:50:00,22.7,15.4,30.27,NE,45,4.0,9.0,73,0.00,,---,0.00,0.00,VWS V14.01,2013-03-01 08:50:00,
2013-03-01 02:55:00,22.7,15.4,30.27,East,90,3.0,10.0,73,0.00,,---,0.00,0.00,VWS V14.01,2013-03-01 08:55:00,
2013-03-01 03:00:00,22.7,15.4,30.27,NNE,22,3.0,9.0,73,0.00,,---,0.00,0.00,VWS V14.01,2013-03-01 09:00:00,
2013-03-01 03:05:00,22.8,15.5,30.28,NE,45,3.0,10.0,73,0.00,,---,0.00,0.00,VWS V14.01,2013-03-01 09:05:00,
2013-03-01 03:10:00,22.8,15.5,30.28,ENE,68,3.0,7.0,73,0.00,,---,0.00,0.00,VWS V14.01,2013-03-01 09:10:00,
2013-03-01 03:15:00,22.8,15.5,30.27,ENE,68,2.0,5.0,73,0.00,,---,0.00,0.00,VWS V14.01,2013-03-01 09:15:00,
2013-03-01 03:20:00,22.8,15.5,30.27,NE,45,2.0,5.0,73,0.00,,---,0.00,0.00,VWS V14.01,2013-03-01 09:20:00,
2013-03-01 03:25:00,22.8,15.5,30.28,NNE,22,3.0,9.0,73,0.00,,---,0.00,0.00,VWS V14.01,2013-03-01 09:25:00,
2013-03-01 03:30:00,22.8,15.5,30.28,NE,45,3.0,7.0,73,0.00,,---,0.00,0.00,VWS V14.01,2013-03-01 09:30:00,
2013-03-01 03:35:00,22.8,15.5,30.28,ENE,68,1.0,6.0,73,0.00,,---,0.00,0.00,VWS V14.01,2013-03-01 09:35:00,
2013-03-01 03:40:00,22.8,15.5,30.28,North,0,2.0,6.0,73,0.00,,---,0.00,0.00,VWS V14.01,2013-03-01 09:40:00,
2013-03-01 03:45:00,22.8,15.5,30.28,NNE,22,1.0,3.0,73,0.00,,---,0.00,0.00,VWS V14.01,2013-03-01 09:45:00,
2013-03-01 03:50:00,22.8,15.5,30.28,NE,45,2.0,5.0,73,0.00,,---,0.00,0.00,VWS V14.01,2013-03-01 09:50:00,
2013-03-01 03:55:00,22.8,15.5,30.28,NNW,338,2.0,5.0,73,0.00,,---,0.00,0.00,VWS V14.01,2013-03-01 09:55:00,
2013-03-01 04:00:00,22.8,15.5,30.28,ENE,68,2.0,5.0,73,0.00,,---,0.00,0.00,VWS V14.01,2013-03-01 10:00:00,
2013-03-01 04:05:00,22.8,15.1,30.28,ENE,68,2.0,9.0,72,0.00,,---,0.00,0.00,VWS V14.01,2013-03-01 10:05:00,
2013-03-01 04:10:00,22.8,15.1,30.28,ENE,68,1.0,3.0,72,0.00,,---,0.00,0.00,VWS V14.01,2013-03-01 10:10:00,
2013-03-01 04:15:00,22.9,15.2,30.28,NE,45,2.0,6.0,72,0.00,,---,0.00,0.00,VWS V14.01,2013-03-01 10:15:00,
2013-03-01 04:20:00,22.8,15.1,30.28,NNE,22,2.0,4.0,72,0.00,,---,0.00,0.00,VWS V14.01,2013-03-01 10:20:00,
2013-03-01 04:25:00,22.8,15.1,30.28,NNE,22,2.0,6.0,72,0.00,,---,0.00,0.00,VWS V14.01,2013-03-01 10:25:00,
2013-03-01 04:30:00,22.8,15.1,30.28,NE,45,2.0,4.0,72,0.00,,---,0.00,0.00,VWS V14.01,2013-03-01 10:30:00,
2013-03-01 04:35:00,22.8,15.1,30.28,ENE,68,1.0,3.0,72,0.00,,---,0.00,0.00,VWS V14.01,2013-03-01 10:35:00,
2013-03-01 04:40:00,22.8,15.1,30.29,ENE,68,2.0,5.0,72,0.00,,---,0.00,0.00,VWS V14.01,2013-03-01 10:40:00,
2013-03-01 04:45:00,22.8,15.1,30.29,NE,45,1.0,4.0,72,0.00,,---,0.00,0.00,VWS V14.01,2013-03-01 10:45:00,
2013-03-01 04:50:00,22.8,15.1,30.29,North,0,2.0,5.0,72,0.00,,---,0.00,0.00,VWS V14.01,2013-03-01 10:50:00,
2013-03-01 04:55:00,22.8,15.1,30.29,ENE,68,1.0,4.0,72,0.00,,---,0.00,0.00,VWS V14.01,2013-03-01 10:55:00,
2013-03-01 05:00:00,22.8,15.1,30.30,NE,45,2.0,5.0,72,0.00,,---,0.00,0.00,VWS V14.01,2013-03-01 11:00:00,
2013-03-01 05:05:00,22.8,15.1,30.30,NNE,22,0.0,1.0,72,0.00,,---,0.00,0.00,VWS V14.01,2013-03-01 11:05:00,
2013-03-01 05:10:00,22.8,15.1,30.30,NNE,22,1.0,4.0,72,0.00,,---,0.00,0.00,VWS V14.01,2013-03-01 11:10:00,
2013-03-01 05:15:00,22.8,15.1,30.30,NNE,22,2.0,6.0,72,0.00,,---,0.00,0.00,VWS V14.01,2013-03-01 11:15:00,
2013-03-01 05:20:00,22.8,15.1,30.30,NNE,22,2.0,6.0,72,0.00,,---,0.00,0.00,VWS V14.01,2013-03-01 11:20:00,
2013-03-01 05:25:00,22.9,15.2,30.30,NNE,22,1.0,5.0,72,0.00,,---,0.00,0.00,VWS V14.01,2013-03-01 11:25:00,
2013-03-01 05:30:00,22.9,15.2,30.30,NE,45,2.0,4.0,72,0.00,,---,0.00,0.00,VWS V14.01,2013-03-01 11:30:00,
2013-03-01 05:35:00,22.9,15.2,30.30,NNE,22,2.0,6.0,72,0.00,,---,0.00,0.00,VWS V14.01,2013-03-01 11:35:00,
2013-03-01 05:40:00,22.9,15.2,30.31,NNE,22,1.0,4.0,72,0.00,,---,0.00,0.00,VWS V14.01,2013-03-01 11:40:00,
2013-03-01 05:45:00,22.9,15.2,30.31,NNE,22,2.0,5.0,72,0.00,,---,0.00,0.00,VWS V14.01,2013-03-01 11:45:00,
2013-03-01 05:50:00,22.9,15.6,30.31,North,0,2.0,5.0,73,0.00,,---,0.00,0.00,VWS V14.01,2013-03-01 11:50:00,
2013-03-01 05:55:00,22.9,15.6,30.31,North,0,1.0,5.0,73,0.00,,---,0.00,0.00,VWS V14.01,2013-03-01 11:55:00,
2013-03-01 06:00:00,22.9,15.6,30.31,NNE,22,2.0,5.0,73,0.00,,---,0.00,0.00,VWS V14.01,2013-03-01 12:00:00,
2013-03-01 06:05:00,22.9,15.6,30.31,NNW,338,1.0,5.0,73,0.00,,---,0.00,0.00,VWS V14.01,2013-03-01 12:05:00,
2013-03-01 06:10:00,22.9,15.6,30.31,NNW,338,1.0,4.0,73,0.00,,---,0.00,0.00,VWS V14.01,2013-03-01 12:10:00,
2013-03-01 06:15:00,22.9,15.6,30.32,North,0,2.0,7.0,73,0.00,,---,0.00,0.00,VWS V14.01,2013-03-01 12:15:00,
2013-03-01 06:20:00,22.9,15.6,30.32,NNE,22,4.0,6.0,73,0.00,,---,0.00,0.00,VWS V14.01,2013-03-01 12:20:00,
2013-03-01 06:25:00,22.9,15.6,30.32,NNE,22,1.0,3.0,73,0.00,,---,0.00,0.00,VWS V14.01,2013-03-01 12:25:00,
2013-03-01 06:30:00,22.9,15.6,30.32,NNE,22,2.0,5.0,73,0.00,,---,0.00,0.00,VWS V14.01,2013-03-01 12:30:00,
2013-03-01 06:35:00,22.9,15.6,30.32,NNE,22,3.0,6.0,73,0.00,,---,0.00,0.00,VWS V14.01,2013-03-01 12:35:00,
2013-03-01 06:40:00,22.9,15.6,30.32,North,0,3.0,6.0,73,0.00,,---,0.00,0.00,VWS V14.01,2013-03-01 12:40:00,
2013-03-01 06:45:00,22.9,15.6,30.32,North,0,2.0,5.0,73,0.00,,---,0.00,0.00,VWS V14.01,2013-03-01 12:45:00,
2013-03-01 06:50:00,22.9,15.6,30.32,North,0,2.0,5.0,73,0.00,,---,0.00,0.00,VWS V14.01,2013-03-01 12:50:00,
2013-03-01 06:55:00,22.9,15.6,30.32,NNE,22,2.0,4.0,73,0.00,,---,0.00,0.00,VWS V14.01,2013-03-01 12:55:00,
2013-03-01 07:00:00,22.8,15.5,30.33,NNE,22,2.0,6.0,73,0.00,,---,0.00,3.00,VWS V14.01,2013-03-01 13:00:00,
2013-03-01 07:05:00,22.8,15.5,30.33,NNE,22,2.0,6.0,73,0.00,,---,0.00,7.00,VWS V14.01,2013-03-01 13:05:00,
2013-03-01 07:10:00,22.8,15.5,30.33,NNE,22,2.0,5.0,73,0.00,,---,0.00,11.00,VWS V14.01,2013-03-01 13:10:00,
2013-03-01 07:15:00,22.8,15.1,30.33,North,0,2.0,5.0,72,0.00,,---,0.00,15.00,VWS V14.01,2013-03-01 13:15:00,
2013-03-01 07:20:00,22.8,15.1,30.33,NNE,22,2.0,6.0,72,0.00,,---,0.00,19.00,VWS V14.01,2013-03-01 13:20:00,
2013-03-01 07:25:00,22.9,15.2,30.33,NNE,22,3.0,5.0,72,0.00,,---,0.00,26.00,VWS V14.01,2013-03-01 13:25:00,
2013-03-01 07:30:00,22.9,15.2,30.34,NNE,22,2.0,4.0,72,0.00,,---,0.00,25.00,VWS V14.01,2013-03-01 13:30:00,
2013-03-01 07:35:00,22.9,15.2,30.33,NNE,22,1.0,4.0,72,0.00,,---,0.00,24.00,VWS V14.01,2013-03-01 13:35:00,
2013-03-01 07:40:00,23.0,15.3,30.34,NNE,22,2.0,5.0,72,0.00,,---,0.00,25.00,VWS V14.01,2013-03-01 13:40:00,
2013-03-01 07:45:00,23.0,15.3,30.33,North,0,2.0,6.0,72,0.00,,---,0.00,30.00,VWS V14.01,2013-03-01 13:45:00,
2013-03-01 07:50:00,23.1,15.4,30.33,North,0,2.0,5.0,72,0.00,,---,0.00,35.00,VWS V14.01,2013-03-01 13:50:00,
2013-03-01 07:55:00,23.1,15.4,30.34,NNE,22,3.0,7.0,72,0.00,,---,0.00,38.00,VWS V14.01,2013-03-01 13:55:00,
2013-03-01 08:00:00,23.1,15.8,30.34,NNW,338,2.0,5.0,73,0.00,,---,0.00,42.00,VWS V14.01,2013-03-01 14:00:00,
2013-03-01 08:05:00,23.0,17.8,30.34,North,0,4.0,7.0,80,0.00,,---,0.00,51.00,VWS V14.01,2013-03-01 14:05:00,
2013-03-01 08:10:00,22.9,15.9,30.34,North,0,3.0,7.0,74,0.00,,---,0.00,54.00,VWS V14.01,2013-03-01 14:10:00,
2013-03-01 08:15:00,22.8,16.1,30.34,NNW,338,2.0,4.0,75,0.00,,---,0.00,64.00,VWS V14.01,2013-03-01 14:15:00,
2013-03-01 08:20:00,22.8,16.1,30.34,North,0,3.0,5.0,75,0.00,,---,0.00,70.00,VWS V14.01,2013-03-01 14:20:00,
2013-03-01 08:25:00,22.8,16.1,30.34,North,0,3.0,7.0,75,0.00,,---,0.00,76.00,VWS V14.01,2013-03-01 14:25:00,
2013-03-01 08:30:00,22.8,16.1,30.34,North,0,2.0,5.0,75,0.00,,---,0.00,79.00,VWS V14.01,2013-03-01 14:30:00,
2013-03-01 08:35:00,22.9,16.5,30.34,North,0,2.0,5.0,76,0.00,,---,0.00,93.00,VWS V14.01,2013-03-01 14:35:00,
2013-03-01 08:40:00,23.1,16.7,30.34,NNW,338,3.0,7.0,76,0.00,,---,0.00,102.00,VWS V14.01,2013-03-01 14:40:00,
2013-03-01 08:45:00,23.1,16.4,30.34,North,0,3.0,9.0,75,0.00,,---,0.00,114.00,VWS V14.01,2013-03-01 14:45:00,
2013-03-01 08:50:00,23.2,16.5,30.34,NNW,338,4.0,10.0,75,0.00,,---,0.00,116.00,VWS V14.01,2013-03-01 14:50:00,
2013-03-01 08:55:00,23.2,16.5,30.35,NNE,22,3.0,7.0,75,0.00,,---,0.00,116.00,VWS V14.01,2013-03-01 14:55:00,
2013-03-01 09:00:00,23.3,16.6,30.34,NNE,22,3.0,10.0,75,0.00,,---,0.00,129.00,VWS V14.01,2013-03-01 15:00:00,
2013-03-01 09:05:00,23.5,16.5,30.34,North,0,4.0,12.0,74,0.00,,---,0.00,134.00,VWS V14.01,2013-03-01 15:05:00,
2013-03-01 09:10:00,23.5,16.1,30.34,NNE,22,4.0,9.0,73,0.00,,---,0.00,139.00,VWS V14.01,2013-03-01 15:10:00,
2013-03-01 09:15:00,23.5,16.1,30.35,NNE,22,4.0,11.0,73,0.00,,---,0.00,138.00,VWS V14.01,2013-03-01 15:15:00,
2013-03-01 09:20:00,23.5,16.1,30.34,NNE,22,3.0,7.0,73,0.00,,---,0.00,141.00,VWS V14.01,2013-03-01 15:20:00,
2013-03-01 09:25:00,23.6,16.2,30.34,NNE,22,2.0,7.0,73,0.00,,---,0.00,158.00,VWS V14.01,2013-03-01 15:25:00,
2013-03-01 09:30:00,23.8,16.4,30.35,North,0,3.0,6.0,73,0.00,,---,0.00,178.00,VWS V14.01,2013-03-01 15:30:00,
2013-03-01 09:35:00,24.0,16.3,30.35,NNE,22,4.0,7.0,72,0.00,,---,0.00,193.00,VWS V14.01,2013-03-01 15:35:00,
2013-03-01 09:40:00,24.0,16.3,30.35,North,0,4.0,9.0,72,0.00,,---,0.00,204.00,VWS V14.01,2013-03-01 15:40:00,
2013-03-01 09:45:00,23.9,16.2,30.35,NNE,22,5.0,13.0,72,0.00,,---,0.00,207.00,VWS V14.01,2013-03-01 15:45:00,
2013-03-01 09:50:00,23.9,16.2,30.35,NNE,22,4.0,10.0,72,0.00,,---,0.00,218.00,VWS V14.01,2013-03-01 15:50:00,
2013-03-01 09:55:00,24.0,16.3,30.35,NNE,22,4.0,11.0,72,0.00,,---,0.00,215.00,VWS V14.01,2013-03-01 15:55:00,
2013-03-01 10:00:00,24.2,16.5,30.35,NNW,338,3.0,10.0,72,0.00,,---,0.00,217.00,VWS V14.01,2013-03-01 16:00:00,
2013-03-01 10:05:00,24.3,16.6,30.36,NE,45,4.0,10.0,72,0.00,,---,0.00,217.00,VWS V14.01,2013-03-01 16:05:00,
2013-03-01 10:10:00,24.3,16.6,30.35,North,0,4.0,10.0,72,0.00,,---,0.00,223.00,VWS V14.01,2013-03-01 16:10:00,
2013-03-01 10:15:00,24.3,16.6,30.35,North,0,4.0,12.0,72,0.00,,---,0.00,260.00,VWS V14.01,2013-03-01 16:15:00,
2013-03-01 10:20:00,24.3,16.6,30.35,NE,45,4.0,9.0,72,0.00,,---,0.00,285.00,VWS V14.01,2013-03-01 16:20:00,
2013-03-01 10:25:00,24.3,16.6,30.35,NNE,22,5.0,11.0,72,0.00,,---,0.00,280.00,VWS V14.01,2013-03-01 16:25:00,
2013-03-01 10:30:00,24.2,16.5,30.36,NNE,22,5.0,10.0,72,0.00,,---,0.00,293.00,VWS V14.01,2013-03-01 16:30:00,
2013-03-01 10:35:00,24.3,16.6,30.36,NNE,22,4.0,9.0,72,0.00,,---,0.00,293.00,VWS V14.01,2013-03-01 16:35:00,
2013-03-01 10:40:00,24.4,16.7,30.36,North,0,4.0,10.0,72,0.00,,---,0.00,283.00,VWS V14.01,2013-03-01 16:40:00,
2013-03-01 10:45:00,24.3,16.6,30.36,North,0,4.0,12.0,72,0.00,,---,0.00,285.00,VWS V14.01,2013-03-01 16:45:00,
2013-03-01 10:50:00,24.4,16.7,30.36,NNW,338,3.0,7.0,72,0.00,,---,0.00,285.00,VWS V14.01,2013-03-01 16:50:00,
2013-03-01 10:55:00,24.6,16.9,30.35,North,0,4.0,7.0,72,0.00,,---,0.00,287.00,VWS V14.01,2013-03-01 16:55:00,
2013-03-01 11:00:00,24.9,17.2,30.35,NNE,22,3.0,6.0,72,0.00,,---,0.00,287.00,VWS V14.01,2013-03-01 17:00:00,
2013-03-01 11:05:00,24.9,16.8,30.35,North,0,4.0,9.0,71,0.00,,---,0.00,305.00,VWS V14.01,2013-03-01 17:05:00,
2013-03-01 11:10:00,24.7,16.6,30.35,NNE,22,4.0,7.0,71,0.00,,---,0.00,300.00,VWS V14.01,2013-03-01 17:10:00,
2013-03-01 11:15:00,24.7,16.6,30.35,North,0,3.0,13.0,71,0.00,,---,0.00,313.00,VWS V14.01,2013-03-01 17:15:00,
2013-03-01 11:20:00,24.7,16.6,30.35,NNE,22,5.0,11.0,71,0.00,,---,0.00,395.00,VWS V14.01,2013-03-01 17:20:00,
2013-03-01 11:25:00,24.8,16.8,30.35,NNE,22,5.0,13.0,71,0.00,,---,0.00,359.00,VWS V14.01,2013-03-01 17:25:00,
2013-03-01 11:30:00,24.7,16.6,30.35,NNE,22,5.0,11.0,71,0.00,,---,0.00,352.00,VWS V14.01,2013-03-01 17:30:00,
2013-03-01 11:35:00,24.8,16.8,30.36,NNE,22,4.0,9.0,71,0.00,,---,0.00,313.00,VWS V14.01,2013-03-01 17:35:00,
2013-03-01 11:40:00,24.9,16.8,30.35,NNE,22,5.0,16.0,71,0.00,,---,0.00,363.00,VWS V14.01,2013-03-01 17:40:00,
2013-03-01 11:45:00,24.9,16.8,30.35,NNE,22,5.0,12.0,71,0.00,,---,0.00,384.00,VWS V14.01,2013-03-01 17:45:00,
2013-03-01 11:50:00,24.9,16.8,30.35,NNE,22,4.0,10.0,71,0.00,,---,0.00,595.00,VWS V14.01,2013-03-01 17:50:00,
2013-03-01 11:55:00,25.5,17.1,30.35,NNE,22,3.0,9.0,70,0.00,,---,0.00,470.00,VWS V14.01,2013-03-01 17:55:00,
2013-03-01 12:00:00,25.9,17.5,30.35,North,0,4.0,11.0,70,0.00,,---,0.00,451.00,VWS V14.01,2013-03-01 18:00:00,
2013-03-01 12:05:00,26.1,17.7,30.35,North,0,4.0,12.0,70,0.00,,---,0.00,377.00,VWS V14.01,2013-03-01 18:05:00,
2013-03-01 12:10:00,26.3,17.5,30.35,North,0,3.0,8.0,69,0.00,,---,0.00,372.00,VWS V14.01,2013-03-01 18:10:00,
2013-03-01 12:15:00,26.1,17.3,30.35,NNE,22,6.0,13.0,69,0.00,,---,0.00,491.00,VWS V14.01,2013-03-01 18:15:00,
2013-03-01 12:20:00,25.8,17.0,30.35,North,0,4.0,13.0,69,0.00,,---,0.00,415.00,VWS V14.01,2013-03-01 18:20:00,
2013-03-01 12:25:00,25.8,17.0,30.35,NNE,22,4.0,10.0,69,0.00,,---,0.00,375.00,VWS V14.01,2013-03-01 18:25:00,
2013-03-01 12:30:00,26.0,17.2,30.35,North,0,5.0,11.0,69,0.00,,---,0.00,750.00,VWS V14.01,2013-03-01 18:30:00,
2013-03-01 12:35:00,26.2,17.4,30.35,North,0,4.0,10.0,69,0.00,,---,0.00,457.00,VWS V14.01,2013-03-01 18:35:00,
2013-03-01 12:40:00,26.6,17.5,30.35,North,0,3.0,11.0,68,0.00,,---,0.00,472.00,VWS V14.01,2013-03-01 18:40:00,
2013-03-01 12:45:00,26.8,17.7,30.35,NNW,338,2.0,6.0,68,0.00,,---,0.00,485.00,VWS V14.01,2013-03-01 18:45:00,
2013-03-01 12:50:00,27.5,18.3,30.35,NW,315,2.0,7.0,68,0.00,,---,0.00,425.00,VWS V14.01,2013-03-01 18:50:00,
2013-03-01 12:55:00,27.8,17.9,30.34,NNE,22,4.0,10.0,66,0.00,,---,0.00,379.00,VWS V14.01,2013-03-01 18:55:00,
2013-03-01 13:00:00,27.5,17.6,30.34,North,0,3.0,7.0,66,0.00,,---,0.00,442.00,VWS V14.01,2013-03-01 19:00:00,
2013-03-01 13:05:00,27.4,17.9,30.34,NNW,338,4.0,8.0,67,0.00,,---,0.00,425.00,VWS V14.01,2013-03-01 19:05:00,
2013-03-01 13:10:00,27.3,17.8,30.34,North,0,3.0,10.0,67,0.00,,---,0.00,407.00,VWS V14.01,2013-03-01 19:10:00,
2013-03-01 13:15:00,27.2,17.7,30.34,NNE,22,4.0,12.0,67,0.00,,---,0.00,425.00,VWS V14.01,2013-03-01 19:15:00,
2013-03-01 13:20:00,27.2,17.4,30.34,North,0,6.0,15.0,66,0.00,,---,0.00,344.00,VWS V14.01,2013-03-01 19:20:00,
2013-03-01 13:25:00,26.9,17.1,30.33,North,0,4.0,11.0,66,0.00,,---,0.00,358.00,VWS V14.01,2013-03-01 19:25:00,
2013-03-01 13:30:00,27.1,17.3,30.33,NNW,338,6.0,12.0,66,0.00,,---,0.00,442.00,VWS V14.01,2013-03-01 19:30:00,
2013-03-01 13:35:00,27.4,17.5,30.33,NNW,338,3.0,10.0,66,0.00,,---,0.00,545.00,VWS V14.01,2013-03-01 19:35:00,
2013-03-01 13:40:00,27.6,17.4,30.33,North,0,4.0,9.0,65,0.00,,---,0.00,800.00,VWS V14.01,2013-03-01 19:40:00,
2013-03-01 13:45:00,27.8,17.6,30.33,North,0,3.0,9.0,65,0.00,,---,0.00,506.00,VWS V14.01,2013-03-01 19:45:00,
2013-03-01 13:50:00,28.1,17.5,30.33,North,0,5.0,10.0,64,0.00,,---,0.00,791.00,VWS V14.01,2013-03-01 19:50:00,
2013-03-01 13:55:00,28.1,17.5,30.33,NNW,338,4.0,13.0,64,0.00,,---,0.00,538.00,VWS V14.01,2013-03-01 19:55:00,
2013-03-01 14:00:00,28.1,17.5,30.33,North,0,5.0,12.0,64,0.00,,---,0.00,575.00,VWS V14.01,2013-03-01 20:00:00,
2013-03-01 14:05:00,28.1,17.5,30.32,NNE,22,4.0,11.0,64,0.00,,---,0.00,720.00,VWS V14.01,2013-03-01 20:05:00,
2013-03-01 14:10:00,28.4,17.8,30.32,North,0,5.0,11.0,64,0.00,,---,0.00,531.00,VWS V14.01,2013-03-01 20:10:00,
2013-03-01 14:15:00,28.3,17.3,30.32,North,0,6.0,12.0,63,0.00,,---,0.00,426.00,VWS V14.01,2013-03-01 20:15:00,
2013-03-01 14:20:00,28.0,17.0,30.33,North,0,5.0,12.0,63,0.00,,---,0.00,526.00,VWS V14.01,2013-03-01 20:20:00,
2013-03-01 14:25:00,28.1,17.1,30.32,North,0,2.0,9.0,63,0.00,,---,0.00,509.00,VWS V14.01,2013-03-01 20:25:00,
2013-03-01 14:30:00,28.3,17.7,30.32,NNE,22,2.0,7.0,64,0.00,,---,0.00,568.00,VWS V14.01,2013-03-01 20:30:00,
2013-03-01 14:35:00,29.0,17.6,30.32,North,0,3.0,9.0,62,0.00,,---,0.00,571.00,VWS V14.01,2013-03-01 20:35:00,
2013-03-01 14:40:00,29.0,17.2,30.32,North,0,6.0,11.0,61,0.00,,---,0.00,521.00,VWS V14.01,2013-03-01 20:40:00,
2013-03-01 14:45:00,28.6,17.2,30.32,North,0,4.0,8.0,62,0.00,,---,0.00,482.00,VWS V14.01,2013-03-01 20:45:00,
2013-03-01 14:50:00,28.7,17.7,30.32,NNW,338,4.0,13.0,63,0.00,,---,0.00,463.00,VWS V14.01,2013-03-01 20:50:00,
2013-03-01 14:55:00,28.9,17.5,30.32,North,0,4.0,10.0,62,0.00,,---,0.00,414.00,VWS V14.01,2013-03-01 20:55:00,
2013-03-01 15:00:00,28.8,17.4,30.32,North,0,5.0,11.0,62,0.00,,---,0.00,467.00,VWS V14.01,2013-03-01 21:00:00,
2013-03-01 15:05:00,28.9,17.5,30.31,North,0,4.0,8.0,62,0.00,,---,0.00,470.00,VWS V14.01,2013-03-01 21:05:00,
2013-03-01 15:10:00,29.0,17.6,30.32,NNW,338,4.0,10.0,62,0.00,,---,0.00,432.00,VWS V14.01,2013-03-01 21:10:00,
2013-03-01 15:15:00,29.0,17.2,30.32,North,0,4.0,11.0,61,0.00,,---,0.00,381.00,VWS V14.01,2013-03-01 21:15:00,
2013-03-01 15:20:00,28.9,17.2,30.32,NNE,22,4.0,10.0,61,0.00,,---,0.00,378.00,VWS V14.01,2013-03-01 21:20:00,
2013-03-01 15:25:00,28.9,17.2,30.32,North,0,5.0,12.0,61,0.00,,---,0.00,388.00,VWS V14.01,2013-03-01 21:25:00,
2013-03-01 15:30:00,28.8,17.4,30.32,NNE,22,5.0,11.0,62,0.00,,---,0.00,346.00,VWS V14.01,2013-03-01 21:30:00,
2013-03-01 15:35:00,28.9,17.5,30.32,North,0,5.0,16.0,62,0.00,,---,0.00,340.00,VWS V14.01,2013-03-01 21:35:00,
2013-03-01 15:40:00,28.9,17.2,30.32,NNW,338,4.0,12.0,61,0.00,,---,0.00,390.00,VWS V14.01,2013-03-01 21:40:00,
2013-03-01 15:45:00,29.1,17.3,30.32,NNW,338,4.0,8.0,61,0.00,,---,0.00,408.00,VWS V14.01,2013-03-01 21:45:00,
2013-03-01 15:50:00,29.3,17.1,30.32,NNW,338,4.0,9.0,60,0.00,,---,0.00,360.00,VWS V14.01,2013-03-01 21:50:00,
2013-03-01 15:55:00,29.3,17.5,30.32,North,0,4.0,10.0,61,0.00,,---,0.00,340.00,VWS V14.01,2013-03-01 21:55:00,
2013-03-01 16:00:00,29.4,17.6,30.32,NW,315,5.0,12.0,61,0.00,,---,0.00,333.00,VWS V14.01,2013-03-01 22:00:00,
2013-03-01 16:05:00,29.6,17.8,30.32,NNW,338,3.0,9.0,61,0.00,,---,0.00,327.00,VWS V14.01,2013-03-01 22:05:00,
2013-03-01 16:10:00,29.8,18.0,30.32,North,0,4.0,10.0,61,0.00,,---,0.00,320.00,VWS V14.01,2013-03-01 22:10:00,
2013-03-01 16:15:00,29.9,17.7,30.33,NNW,338,4.0,10.0,60,0.00,,---,0.00,308.00,VWS V14.01,2013-03-01 22:15:00,
2013-03-01 16:20:00,29.8,17.6,30.33,North,0,4.0,10.0,60,0.00,,---,0.00,288.00,VWS V14.01,2013-03-01 22:20:00,
2013-03-01 16:25:00,29.7,17.5,30.33,NNW,338,4.0,11.0,60,0.00,,---,0.00,265.00,VWS V14.01,2013-03-01 22:25:00,
2013-03-01 16:30:00,29.6,17.0,30.33,North,0,5.0,12.0,59,0.00,,---,0.00,247.00,VWS V14.01,2013-03-01 22:30:00,
2013-03-01 16:35:00,29.2,17.1,30.33,North,0,4.0,10.0,60,0.00,,---,0.00,237.00,VWS V14.01,2013-03-01 22:35:00,
2013-03-01 16:40:00,29.2,17.1,30.33,North,0,4.0,9.0,60,0.00,,---,0.00,221.00,VWS V14.01,2013-03-01 22:40:00,
2013-03-01 16:45:00,29.1,17.0,30.33,North,0,4.0,11.0,60,0.00,,---,0.00,205.00,VWS V14.01,2013-03-01 22:45:00,
2013-03-01 16:50:00,29.1,17.0,30.33,North,0,3.0,12.0,60,0.00,,---,0.00,190.00,VWS V14.01,2013-03-01 22:50:00,
2013-03-01 16:55:00,29.2,17.4,30.33,North,0,3.0,7.0,61,0.00,,---,0.00,176.00,VWS V14.01,2013-03-01 22:55:00,
2013-03-01 17:00:00,29.2,17.4,30.33,North,0,4.0,7.0,61,0.00,,---,0.00,163.00,VWS V14.01,2013-03-01 23:00:00,
2013-03-01 17:05:00,29.1,17.3,30.33,North,0,4.0,10.0,61,0.00,,---,0.00,149.00,VWS V14.01,2013-03-01 23:05:00,
2013-03-01 17:10:00,29.0,17.2,30.33,NNE,22,4.0,9.0,61,0.00,,---,0.00,133.00,VWS V14.01,2013-03-01 23:10:00,
2013-03-01 17:15:00,28.9,17.2,30.33,NNW,338,3.0,7.0,61,0.00,,---,0.00,116.00,VWS V14.01,2013-03-01 23:15:00,
2013-03-01 17:20:00,28.8,17.1,30.33,North,0,3.0,9.0,61,0.00,,---,0.00,98.00,VWS V14.01,2013-03-01 23:20:00,
2013-03-01 17:25:00,28.7,17.0,30.33,North,0,4.0,9.0,61,0.00,,---,0.00,83.00,VWS V14.01,2013-03-01 23:25:00,
2013-03-01 17:30:00,28.6,17.2,30.34,North,0,3.0,6.0,62,0.00,,---,0.00,68.00,VWS V14.01,2013-03-01 23:30:00,
2013-03-01 17:35:00,28.5,17.1,30.34,North,0,3.0,7.0,62,0.00,,---,0.00,55.00,VWS V14.01,2013-03-01 23:35:00,
2013-03-01 17:40:00,28.3,17.3,30.34,NNW,338,2.0,5.0,63,0.00,,---,0.00,42.00,VWS V14.01,2013-03-01 23:40:00,
2013-03-01 17:45:00,28.1,17.1,30.34,North,0,3.0,7.0,63,0.00,,---,0.00,32.00,VWS V14.01,2013-03-01 23:45:00,
2013-03-01 17:50:00,27.8,17.2,30.34,North,0,3.0,11.0,64,0.00,,---,0.00,21.00,VWS V14.01,2013-03-01 23:50:00,
2013-03-01 17:55:00,27.5,16.9,30.34,North,0,2.0,6.0,64,0.00,,---,0.00,13.00,VWS V14.01,2013-03-01 23:55:00,
2013-03-01 18:00:00,27.1,16.6,30.34,WNW,292,2.0,6.0,64,0.00,,---,0.00,8.00,VWS V14.01,2013-03-02 00:00:00,
2013-03-01 18:05:00,26.9,16.7,30.35,NNW,338,3.0,6.0,65,0.00,,---,0.00,3.00,VWS V14.01,2013-03-02 00:05:00,
2013-03-01 18:10:00,26.7,16.5,30.35,NNW,338,2.0,4.0,65,0.00,,---,0.00,0.00,VWS V14.01,2013-03-02 00:10:00,
2013-03-01 18:15:00,26.4,16.2,30.35,North,0,3.0,7.0,65,0.00,,---,0.00,0.00,VWS V14.01,2013-03-02 00:15:00,
2013-03-01 18:20:00,26.2,16.4,30.35,NNW,338,3.0,6.0,66,0.00,,---,0.00,0.00,VWS V14.01,2013-03-02 00:20:00,
2013-03-01 18:25:00,26.1,16.3,30.35,North,0,2.0,7.0,66,0.00,,---,0.00,0.00,VWS V14.01,2013-03-02 00:25:00,
2013-03-01 18:30:00,25.9,16.1,30.35,North,0,2.0,4.0,66,0.00,,---,0.00,0.00,VWS V14.01,2013-03-02 00:30:00,
2013-03-01 18:35:00,25.7,15.9,30.35,North,0,2.0,5.0,66,0.00,,---,0.00,0.00,VWS V14.01,2013-03-02 00:35:00,
2013-03-01 18:40:00,25.5,15.7,30.35,NNW,338,3.0,6.0,66,0.00,,---,0.00,0.00,VWS V14.01,2013-03-02 00:40:00,
2013-03-01 18:45:00,25.4,16.0,30.35,NNW,338,3.0,10.0,67,0.00,,---,0.00,0.00,VWS V14.01,2013-03-02 00:45:00,
2013-03-01 18:50:00,25.3,15.9,30.35,North,0,3.0,7.0,67,0.00,,---,0.00,0.00,VWS V14.01,2013-03-02 00:50:00,
2013-03-01 18:55:00,25.2,15.8,30.36,North,0,2.0,7.0,67,0.00,,---,0.00,0.00,VWS V14.01,2013-03-02 00:55:00,
2013-03-01 19:00:00,25.0,15.9,30.36,North,0,3.0,7.0,68,0.00,,---,0.00,0.00,VWS V14.01,2013-03-02 01:00:00,
2013-03-01 19:10:00,24.7,16.0,30.36,North,0,3.0,11.0,69,0.00,,---,0.00,0.00,VWS V14.01,2013-03-02 01:10:00,
2013-03-01 19:15:00,24.5,15.8,30.37,North,0,4.0,10.0,69,0.00,,---,0.00,0.00,VWS V14.01,2013-03-02 01:15:00,
2013-03-01 19:20:00,24.3,15.6,30.37,North,0,5.0,10.0,69,0.00,,---,0.00,0.00,VWS V14.01,2013-03-02 01:20:00,
2013-03-01 19:25:00,24.0,15.6,30.37,NNW,338,3.0,7.0,70,0.00,,---,0.00,0.00,VWS V14.01,2013-03-02 01:25:00,
2013-03-01 19:30:00,23.8,15.5,30.37,North,0,3.0,10.0,70,0.00,,---,0.00,0.00,VWS V14.01,2013-03-02 01:30:00,
2013-03-01 19:35:00,23.6,15.3,30.37,North,0,4.0,10.0,70,0.00,,---,0.00,0.00,VWS V14.01,2013-03-02 01:35:00,
2013-03-01 19:40:00,23.4,15.1,30.37,North,0,3.0,10.0,70,0.00,,---,0.00,0.00,VWS V14.01,2013-03-02 01:40:00,
2013-03-01 19:45:00,23.2,15.2,30.38,NNE,22,3.0,10.0,71,0.00,,---,0.00,0.00,VWS V14.01,2013-03-02 01:45:00,
2013-03-01 19:50:00,23.1,15.1,30.38,North,0,3.0,6.0,71,0.00,,---,0.00,0.00,VWS V14.01,2013-03-02 01:50:00,
2013-03-01 19:55:00,22.8,14.8,30.38,North,0,4.0,9.0,71,0.00,,---,0.00,0.00,VWS V14.01,2013-03-02 01:55:00,
2013-03-01 20:00:00,22.7,14.7,30.37,NNW,338,4.0,11.0,71,0.00,,---,0.00,0.00,VWS V14.01,2013-03-02 02:00:00,
2013-03-01 20:05:00,22.5,14.5,30.37,NNW,338,3.0,9.0,71,0.00,,---,0.00,0.00,VWS V14.01,2013-03-02 02:05:00,
2013-03-01 20:10:00,22.3,14.3,30.37,North,0,4.0,9.0,71,0.00,,---,0.00,0.00,VWS V14.01,2013-03-02 02:10:00,
2013-03-01 20:15:00,22.1,14.5,30.37,North,0,3.0,9.0,72,0.00,,---,0.00,0.00,VWS V14.01,2013-03-02 02:15:00,
2013-03-01 20:20:00,22.0,14.4,30.37,North,0,4.0,11.0,72,0.00,,---,0.00,0.00,VWS V14.01,2013-03-02 02:20:00,
2013-03-01 20:25:00,21.8,14.2,30.37,NW,315,2.0,5.0,72,0.00,,---,0.00,0.00,VWS V14.01,2013-03-02 02:25:00,
2013-03-01 20:30:00,21.6,14.0,30.37,North,0,3.0,7.0,72,0.00,,---,0.00,0.00,VWS V14.01,2013-03-02 02:30:00,
2013-03-01 20:35:00,21.5,13.9,30.37,NW,315,3.0,6.0,72,0.00,,---,0.00,0.00,VWS V14.01,2013-03-02 02:35:00,
2013-03-01 20:40:00,21.3,14.0,30.37,North,0,2.0,6.0,73,0.00,,---,0.00,0.00,VWS V14.01,2013-03-02 02:40:00,
2013-03-01 20:45:00,21.1,13.8,30.36,NNW,338,2.0,6.0,73,0.00,,---,0.00,0.00,VWS V14.01,2013-03-02 02:45:00,
2013-03-01 20:50:00,20.9,13.6,30.37,North,0,2.0,5.0,73,0.00,,---,0.00,0.00,VWS V14.01,2013-03-02 02:50:00,
2013-03-01 20:55:00,20.7,13.4,30.37,North,0,2.0,6.0,73,0.00,,---,0.00,0.00,VWS V14.01,2013-03-02 02:55:00,
2013-03-01 21:00:00,20.5,13.5,30.37,North,0,2.0,6.0,74,0.00,,---,0.00,0.00,VWS V14.01,2013-03-02 03:00:00,
2013-03-01 21:05:00,20.3,13.4,30.37,North,0,3.0,7.0,74,0.00,,---,0.00,0.00,VWS V14.01,2013-03-02 03:05:00,
2013-03-01 21:10:00,20.1,13.2,30.37,NNE,22,2.0,7.0,74,0.00,,---,0.00,0.00,VWS V14.01,2013-03-02 03:10:00,
2013-03-01 21:15:00,19.9,13.0,30.37,North,0,2.0,5.0,74,0.00,,---,0.00,0.00,VWS V14.01,2013-03-02 03:15:00,
2013-03-01 21:20:00,19.7,13.1,30.37,North,0,2.0,6.0,75,0.00,,---,0.00,0.00,VWS V14.01,2013-03-02 03:20:00,
2013-03-01 21:25:00,19.7,13.1,30.37,North,0,2.0,4.0,75,0.00,,---,0.00,0.00,VWS V14.01,2013-03-02 03:25:00,
2013-03-01 21:30:00,19.6,13.0,30.38,North,0,3.0,5.0,75,0.00,,---,0.00,0.00,VWS V14.01,2013-03-02 03:30:00,
2013-03-01 21:45:00,19.0,12.7,30.38,North,360,2.0,4.0,76,0.00,,---,0.00,0.00,VWS V14.01,2013-03-02 03:45:00,
2013-03-01 21:50:00,18.9,12.6,30.38,North,360,0.0,3.0,76,0.00,,---,0.00,0.00,VWS V14.01,2013-03-02 03:50:00,
2013-03-01 21:55:00,18.7,12.4,30.38,North,360,1.0,3.0,76,0.00,,---,0.00,0.00,VWS V14.01,2013-03-02 03:55:00,
2013-03-01 22:00:00,18.5,12.2,30.38,North,360,2.0,3.0,76,0.00,,---,0.00,0.00,VWS V14.01,2013-03-02 04:00:00,
2013-03-01 22:05:00,18.4,12.1,30.38,North,5,1.0,4.0,76,0.00,,---,0.00,0.00,VWS V14.01,2013-03-02 04:05:00,
2013-03-01 22:10:00,18.2,12.2,30.38,North,5,3.0,3.0,77,0.00,,---,0.00,0.00,VWS V14.01,2013-03-02 04:10:00,
2013-03-01 22:15:00,18.1,12.1,30.38,North,5,1.0,4.0,77,0.00,,---,0.00,0.00,VWS V14.01,2013-03-02 04:15:00,
2013-03-01 22:20:00,17.9,11.9,30.38,North,355,1.0,3.0,77,0.00,,---,0.00,0.00,VWS V14.01,2013-03-02 04:20:00,
2013-03-01 22:25:00,17.8,11.8,30.38,NNW,348,2.0,3.0,77,0.00,,---,0.00,0.00,VWS V14.01,2013-03-02 04:25:00,
2013-03-01 22:30:00,17.7,11.7,30.38,NNW,348,1.0,2.0,77,0.00,,---,0.00,0.00,VWS V14.01,2013-03-02 04:30:00,
2013-03-01 22:35:00,17.5,11.8,30.38,NNW,348,1.0,3.0,78,0.00,,---,0.00,0.00,VWS V14.01,2013-03-02 04:35:00,
2013-03-01 22:40:00,17.3,11.6,30.38,North,349,1.0,3.0,78,0.00,,---,0.00,0.00,VWS V14.01,2013-03-02 04:40:00,
2013-03-01 22:45:00,17.2,11.5,30.38,North,350,0.0,3.0,78,0.00,,---,0.00,0.00,VWS V14.01,2013-03-02 04:45:00,
2013-03-01 22:50:00,17.0,11.3,30.37,North,350,1.0,2.0,78,0.00,,---,0.00,0.00,VWS V14.01,2013-03-02 04:50:00,
2013-03-01 22:55:00,16.8,11.4,30.37,North,350,1.0,3.0,79,0.00,,---,0.00,0.00,VWS V14.01,2013-03-02 04:55:00,
2013-03-01 23:00:00,16.7,11.3,30.37,North,360,1.0,3.0,79,0.00,,---,0.00,0.00,VWS V14.01,2013-03-02 05:00:00,
2013-03-01 23:05:00,16.5,11.1,30.38,North,5,1.0,2.0,79,0.00,,---,0.00,0.00,VWS V14.01,2013-03-02 05:05:00,
2013-03-01 23:10:00,16.4,11.0,30.38,North,5,1.0,3.0,79,0.00,,---,0.00,0.00,VWS V14.01,2013-03-02 05:10:00,
2013-03-01 23:15:00,16.3,10.9,30.37,North,5,1.0,2.0,79,0.00,,---,0.00,0.00,VWS V14.01,2013-03-02 05:15:00,
2013-03-01 23:20:00,16.2,10.8,30.37,North,5,0.0,3.0,79,0.00,,---,0.00,0.00,VWS V14.01,2013-03-02 05:20:00,
2013-03-01 23:25:00,16.0,10.9,30.37,North,5,0.0,2.0,80,0.00,,---,0.00,0.00,VWS V14.01,2013-03-02 05:25:00,
2013-03-01 23:30:00,15.9,10.8,30.37,North,360,2.0,2.0,80,0.00,,---,0.00,0.00,VWS V14.01,2013-03-02 05:30:00,
2013-03-01 23:35:00,15.8,10.7,30.37,North,360,0.0,3.0,80,0.00,,---,0.00,0.00,VWS V14.01,2013-03-02 05:35:00,
2013-03-01 23:40:00,15.6,10.5,30.37,North,5,2.0,2.0,80,0.00,,---,0.00,0.00,VWS V14.01,2013-03-02 05:40:00,
2013-03-01 23:45:00,15.5,10.4,30.37,North,5,2.0,3.0,80,0.00,,---,0.00,0.00,VWS V14.01,2013-03-02 05:45:00,
2013-03-01 23:50:00,15.3,10.5,30.37,North,5,0.0,3.0,81,0.00,,---,0.00,0.00,VWS V14.01,2013-03-02 05:50:00,
2013-03-01 23:55:00,15.2,10.4,30.37,North,9,0.0,2.0,81,0.00,,---,0.00,0.00,VWS V14.01,2013-03-02 05:55:00,